{"data":{"norad_id":67670,"epoch":"2026-05-25T02:13:29.202240Z","epoch_age_seconds":64074,"freshness":"FRESH","line1":"1 67670U 26022Y   26145.09269910 -.00008126  00000+0 -24967-3 0  9991","line2":"2 67670  97.2834 178.3787 0001759  90.7692 269.3752 15.33442806 17285","mean_motion":15.33442806,"eccentricity":0.0001759,"inclination_deg":97.2834,"raan_deg":178.3787,"arg_perigee_deg":90.7692,"mean_anomaly_deg":269.3752,"bstar":-0.00024967,"rev_number":1728,"period_min":93.906339014772,"perigee_km":464.34589779537,"apogee_km":466.75350677724,"semimajor_km":6843.6867022863,"source":"CELESTRAK","updated_at":"2026-05-25T13:38:21.661541Z"}}